#timestamp,LO_Frequency,Hit,StdDev 
1540389615.3,286047007.0,Y
1540389635.1,286047005.5,P
1540389636.0,286047005.5,N
1540389655.8,286047006.0,N
1540389675.7,286047001.8,N
1540389695.5,286047002.5,N
1540389715.3,286047005.1,N
1540389735.2,286047008.4,Y
1540389755.0,286047005.1,P
1540389755.9,286047005.1,P
1540389775.8,286047009.2,P
1540389795.6,286047010.2,Y
1540389815.4,286047005.5,P
1540389835.3,286047004.3,P
1540389855.1,286047000.1,N
1540389875.9,286047000.0,N
1540389895.7,286047002.7,N
1540389915.5,286047002.7,N
1540389935.4,286046999.7,N
1540389985.2,286047004.2,E
1540389995.2,286047000.4,N
1540390015.9,286046997.1,P
1540390035.7,286046995.3,N
1540390055.6,286046995.3,N
1540390075.4,286046993.4,Y
1540390095.3,286046997.6,P
1540390115.1,286046995.0,P
1540390116.0,286046995.0,P
1540390135.8,286046998.0,N
1540390155.7,286046995.2,Y
1540390175.5,286047001.0,P
1540390195.3,286046998.2,N
1540390215.2,286046999.1,N
1540390235.0,286046996.6,N
1540390235.9,286046996.6,N
1540390255.8,286046999.4,N
1540390275.6,286046999.4,N
1540390295.4,286046998.7,N
1540390315.3,286046998.7,N
1540390365.1,286046999.0,E
1540390375.1,286046999.3,N
1540390376.0,286046999.3,P
1540390395.8,286047000.3,P
1540390415.6,286047001.5,Y
1540390435.5,286047002.1,P
1540390455.3,286047000.0,N
1540390475.1,286047001.2,N
1540390495.9,286046999.3,N
1540390515.7,286046999.2,N
1540390535.6,286046996.6,Y
1540390555.4,286046995.3,P
1540390575.2,286046995.3,N
1540390595.1,286046995.6,N
1540390596.0,286046995.6,N
1540390615.8,286046995.9,N
1540390635.6,286046997.2,N
1540390655.5,286046998.4,N
1540390675.3,286046999.3,N
1540390695.2,286046996.9,N
1540390715.9,286046999.5,N
1540390735.7,286046997.2,N
1540390755.6,286046997.2,N
1540390775.4,286046998.4,N
1540390795.2,286046998.2,N
1540390815.1,286047001.0,N
1540390816.0,286047001.0,N
1540390835.8,286047000.1,N
1540390855.7,286047001.2,N
1540390875.5,286047000.4,N
1540390895.3,286047000.3,N
1540390915.2,286047001.0,N
1540390935.9,286047001.1,N
1540390955.7,286047000.3,N
1540390975.6,286047001.0,N
1540390995.4,286047000.8,N
1540391015.2,286046999.9,N
1540391035.1,286047002.8,N
1540391036.0,286047002.8,N
1540391055.8,286047001.5,N
1540391075.7,286046999.7,N
1540391095.5,286047001.8,N
1540391115.3,286047003.4,N
1540391135.2,286047004.3,N
1540391155.0,286047001.3,N
1540391155.9,286047001.3,N
1540391175.7,286047003.3,N
1540391195.6,286047007.6,Y
1540391215.4,286047005.3,P
1540391235.3,286047003.5,N
1540391255.1,286047003.4,N
1540391275.8,286047003.8,N
1540391295.7,286047002.0,N
1540391315.5,286047002.6,N
1540391335.3,286047000.9,N
1540391355.2,286047002.4,N
1540391375.0,286047002.0,N
1540391375.9,286047002.0,N
1540391395.8,286047004.0,Y
1540391415.6,286046998.6,P
1540391435.4,286046996.9,N
1540391455.3,286046998.9,N
1540391475.1,286046998.5,N
1540391495.8,286046998.4,N
1540391515.7,286046998.9,N
1540391535.5,286046998.8,N
1540391555.4,286046998.6,N
1540391575.2,286046998.3,N
1540391595.0,286047002.3,N
1540391595.9,286047002.3,N
1540391615.8,286047002.5,N
1540391635.6,286047004.1,N
1540391655.4,286047003.8,N
1540391675.3,286047004.3,N
1540391695.1,286047001.9,N
1540391715.9,286046999.8,N
1540391735.7,286046999.9,N
1540391755.5,286047004.2,N
1540391775.4,286047003.8,N
1540391795.2,286047003.2,N
1540391815.0,286047005.5,N
1540391815.9,286047005.5,N
1540391835.8,286047003.5,N
1540391855.6,286047007.2,N
1540391875.5,286047006.9,N
1540391895.3,286047006.6,N
1540391915.1,286047010.7,Y
1540391935.9,286047006.2,P
1540391955.7,286047007.0,P
1540391975.5,286047007.7,P
1540391995.4,286047010.9,Y
1540392015.2,286047007.4,P
1540392035.1,286047007.4,P
1540392036.0,286047007.4,P
1540392055.8,286047006.9,Y
1540392075.6,286046998.7,P
1540392095.5,286047001.2,N
1540392115.3,286047003.9,N
1540392135.2,286047000.4,N
1540392155.9,286047002.4,N
1540392175.7,286047000.0,N
1540392195.6,286047004.4,N
1540392215.4,286047001.3,N
1540392235.2,286047001.6,N
1540392255.1,286047002.8,N
1540392256.0,286047002.8,N
1540392275.8,286047000.1,N
1540392295.7,286047002.0,N
1540392315.5,286047001.8,N
1540392335.3,286047002.1,N
1540392355.2,286047001.5,N
1540392375.0,286047002.2,N
1540392375.9,286047002.2,N
1540392395.7,286047004.0,N
1540392415.6,286047002.2,N
1540392435.4,286046999.9,N
1540392455.3,286046998.5,N
1540392475.1,286046999.3,N
1540392476.0,286046999.3,N
1540392495.8,286046999.4,N
1540392515.7,286046997.0,N
1540392535.5,286046996.6,N
1540392555.3,286046999.3,N
1540392575.2,286047000.0,N
1540392595.0,286047002.4,N
1540392595.9,286047002.4,N
1540392615.8,286047000.4,N
1540392635.6,286046998.6,N
1540392655.4,286046998.9,N
1540392675.3,286047001.2,N
1540392695.1,286047001.1,N
1540392715.8,286046998.5,N
1540392735.7,286046998.3,N
1540392755.5,286047000.5,N
1540392775.4,286047002.7,N
1540392795.2,286047002.8,N
1540392815.0,286047002.7,N
1540392815.9,286047002.7,N
1540392835.8,286047003.7,N
1540392855.6,286047004.1,N
1540392875.4,286047004.4,N
1540392895.3,286047003.9,N
1540392915.1,286047004.2,N
1540392935.9,286047001.8,N
1540392955.7,286047000.4,N
1540392975.5,286046998.1,N
1540392995.4,286047000.6,N
1540393015.2,286047002.6,N
1540393035.0,286047000.8,N
1540393035.9,286047000.8,N
1540393055.8,286047001.0,N
1540393075.6,286047000.7,N
1540393095.5,286047000.8,N
1540393115.3,286046998.4,N
1540393135.1,286047001.2,N
1540393155.9,286046998.6,N
1540393175.7,286046998.7,N
1540393195.5,286046998.4,N
